Regional Weather Roundup
Issued by NWS Green Bay, WI

Home | Current Version | Previous Version | Graphics & Text | Print | Product List | Glossary Off
Versions: 1 2 3 4 5 6 7 8 9 10 11 12 13 14 15 16 17 18 19 20 21 22 23 24 25 26 27 28 29 30 31 32 33 34 35 36 37 38 39 40 41 42 43 44 45 46 47 48 49 50

000
ASUS43 KGRB 022300
RWRGRB

NORTH-CENTRAL AND NORTHEAST WISCONSIN REGIONAL WEATHER ROUNDUP
NATIONAL WEATHER SERVICE GREEN BAY WI
600 PM CDT SUN AUG 02 2015

WIZ005-009-010>012-018-019-030000-
NORTH CENTRAL WISCONSIN

CITY           SKY/WX    TMP DP  RH WIND       PRES   REMARKS
IRONWOOD       MOSUNNY   70  59  68 NW6       29.63R
MANITOWISH WTR NOT AVBL
ARBOR VITAE    NOT AVBL
EAGLE RIVER    NOT AVBL
LAND O LAKES   NOT AVBL
RHINELANDER    MOSUNNY   73  55  53 NW10G20   29.66R
PHILLIPS       SUNNY     75  58  56 NW7       29.66R
ANTIGO         NOT AVBL
TOMAHAWK       NOT AVBL
MERRILL        NOT AVBL
$$

WIZ013-073-030000-
NORTHEAST WISCONSIN

CITY           SKY/WX    TMP DP  RH WIND       PRES   REMARKS
IRON MOUNTAIN  PTSUNNY   74  59  59 NW12      29.60R
MARINETTE      CLOUDY    64  57  77 W3        29.59S
$$

WIZ017-030-035>037-045-030000-
CENTRAL WISCONSIN

CITY           SKY/WX    TMP DP  RH WIND       PRES   REMARKS
MEDFORD        NOT AVBL
WAUSAU         MOSUNNY   78  62  57 NW10      29.62R
MOSINEE        SUNNY     75  64  69 NW13      29.65R
MARSHFIELD     SUNNY     79  58  48 NW16      29.66R
WISC RAPIDS    MOSUNNY   80  64  58 N14G26    29.65R
STEVENS POINT  NOT AVBL
WAUPACA        NOT AVBL
SHAWANO        NOT AVBL
CLINTONVILLE   CLOUDY    70  63  78 CALM      29.61R
$$

WIZ038-039-048-051-030000-
FOX VALLEY

CITY           SKY/WX    TMP DP  RH WIND       PRES   REMARKS
NWS GREEN BAY  LGT RAIN  65  63  93 N6        29.60S
APPLETON       PTSUNNY   72  59  64 NE17      29.62R
OSHKOSH        CLOUDY    72  65  78 N9        29.59R
FOND DU LAC    TSTM      69  64  84 CALM      29.59F
$$

WIZ022-050-052-030000-
EAST CENTRAL WISCONSIN

CITY           SKY/WX    TMP DP  RH WIND       PRES   REMARKS
STURGEON BAY   CLOUDY    63  57  82 CALM      29.60F
MANITOWOC      TSTM      64  63  94 MISG      29.60R
SHEBOYGAN      TSTM      66  62  87 VRB5      29.60R FOG
$$

LMZ563-521-522-541>543-030000-
LAKESHORE

STATION/POSITION TIME  TEMP    WIND        PRES    VSBY  WAVE
                       AIR SEA DIR/SP/G                  HT/PER
                 (UTC) (F)     (DEG/KT/KT) (MB)    (MI)  (FT/S)
SHEBOYGAN LKSHOR 2200   88     250/ 18/ 22  999.9R
KEWAUNEE LKSHORE 2200   60      20/  2/  5 1001.6R
ALGOMA MARINA    2212          210/  8/  9   N/A
NORTHPORT PIER   2200   67     160/  5/ 14 1001.4S
N MID LAKE BUOY  2150   68 69  170/  4/  4 1000.3          2/ 5
S GREEN BAY BUOY 2200   66 68  140/  8/ 10 1003.5
CHAMBERS ISLAND  2200   65     140/  2/  5 1002.0R
MENOMINEE LKSHOR 2200   63     210/  1/  2 1002.8R
$$


USA.gov is the U.S. government's official web portal to all federal, state and local government web resources and services.